MEILLEURS TEMPS MONDIAUX FEMININS 2010

retour page d'accueil

MEILLEURS TEMPS MASCULINS 2010

AUTRES STATISTIQUES

  TEMPS NOM PAYS NAISSANCE PLACE LIEU DATE
1 2:20:25 Liliya Shobukhova  RUS 13/11/1977 1 Chicago, IL 10/10/2010
2 2:22:04 Atsede Baysa  ETH 16/04/1987 1 Paris 11/04/2010
3 2:22:19 Inga Abitova  RUS 06/03/1982 2r1 London 25/04/2010
4 2:22:38 Aselefech Mergia  ETH 23/01/1985 3r1 London 25/04/2010
5 2:22:43 Sharon Jemutai Cherop  KEN 16/03/1984 1 Toronto 26/09/2010
6 2:22:44 Tirfi Tsegaye  ETH 25/11/1984 2 Toronto 26/09/2010
7 2:23:06 Merima Mohammed  ETH 10/06/1992 3 Toronto 26/09/2010
8 2:23:17 Bezunesh Bekele  ETH 29/01/1983 4r1 London 25/04/2010
9 2:23:25 Caroline Cheptanui Kilel  KEN 21/03/1981 1 Frankfurt 31/10/2010
10 2:23:44 Dire Tune  ETH 19/06/1985 2 Frankfurt 31/10/2010
11 2:23:50 Mariya Konovalova  RUS 14/08/1974 3 Chicago, IL 10/10/2010
12 2:23:53 Teyba Erkesso  ETH 30/10/1982 1 Houston, TX 17/01/2010
13 2:23:58 Aberu Kebede  ETH 12/09/1989 1 Berlin 26/09/2010
14 2:24:07 Agnes Kiprop  KEN 14/01/1980 3 Frankfurt 31/10/2010
15 2:24:13 Amane Gobena  ETH 1986 1 Seoul 21/03/2010
16 2:24:19 Mamitu Daska  ETH 16/10/1983 1 Dubai 22/01/2010
17 2:24:22 Christelle Daunay  FRA 05/12/1974 2 Paris 11/04/2010
18 2:24:33 Koren Jelela  ETH 18/01/1987 4 Toronto 26/09/2010
19 2:24:39 Askale Tafa  ETH 27/09/1984 5r1 London 25/04/2010
20 2:24:54 Helena Loshanyang Kirop  KEN 09/09/1976 3 Dubai 22/01/2010
21 2:24:55 Yukiko Akaba  JPN 18/10/1979 6r1 London 25/04/2010
22 2:25:00 Chunxiu Zhou  CHN 15/11/1978 1 Guangzhou 27/11/2010
23 2:25:03 Alice Jemeli Timbilili  KEN 01/02/1983 1 Amsterdam 17/10/2010
24 2:25:10 Isabellah Andersson  SWE 12/11/1980 4 Frankfurt 31/10/2010
25 2:25:18 Xue Bai  CHN 13/12/1988 7r1 London 25/04/2010
26 2:25:21 Kimberley Smith  NZL 19/11/1981 8r1 London 25/04/2010
27 2:25:27 Mare Dibaba  ETH 20/10/1989 5 Frankfurt 31/10/2010
28 2:25:28 Firehiwot Dado  ETH 09/01/1984 1 Roma 21/03/2010
29 2:25:31 Kebebush Haile  ETH 1986 2 Roma 21/03/2010
30 2:25:34 Azalech Masresha  ETH 04/05/1988 4 Paris 11/04/2010
31 2:25:35 Atsede Habtamu  ETH 26/10/1987 1 Eindhoven 10/10/2010
32 2:25:43 Mari Ozaki  JPN 16/07/1975 9r1 London 25/04/2010
33 2:25:44 Marisa Barros  POR 25/02/1980 2 Osaka 31/01/2010
34 2:25:50 Asnakech Mengitsu  ETH 09/05/1986 1 Milano 11/04/2010
35 2:26:05 Nailiya Yulamanova  RUS 06/09/1980 1 Shanghai 05/12/2010
36 2:26:10 Tomo Morimoto  JPN 27/12/1983 3 Berlin 26/09/2010
37 2:26:13 Tatyana Aryasova  RUS 02/04/1979 1 Dublin 24/10/2010
38 2:26:14 Tatyana Pushkareva  RUS 26/09/1985 2 Boston, MA 19/04/2010
39 2:26:16 Mara Yamauchi  GBR 13/08/1973 10r1 London 25/04/2010
40 2:26:20 Desireé Davila  USA 26/07/1983 4 Chicago, IL 10/10/2010
41 2:26:21 Sabrina Mockenhaupt  GER 06/12/1980 4 Berlin 26/09/2010
42 2:26:22 Magdalena Lewy-Boulet  USA 01/08/1973 2 Rotterdam 11/04/2010
43 2:26:23 Hilda Kibet  NED 27/03/1981 6 Frankfurt 31/10/2010
44 2:26:24 Tetyana Filonyuk  UKR 05/04/1984 4 Roma 21/03/2010
45 2:26:35 Xiaolin Zhu  CHN 20/02/1984 2 Guangzhou 27/11/2010
46 2:26:40 Irina Mikitenko  GER 23/08/1972 5 Chicago, IL 10/10/2010
47 2:27:02 Priscah Jeptoo  KEN 1984 1 Torino 14/11/2010
48 2:27:04 Eyerusalem Kuma  ETH 07/09/1981 2 Amsterdam 17/10/2010
49 2:27:06 Kum-Ok Kim  PRK 09/12/1988 3 Guangzhou 27/11/2010
50 2:27:08 Alevtina Ivanova  RUS 22/05/1975 6 Toronto 26/09/2010
51 2:27:11 Lidia Simon  ROU 04/09/1973 4 Osaka 31/01/2010
52 2:27:11 Yuri Kano  JPN 27/10/1978 1 Nagoya 14/03/2010
53 2:27:19 Kayoko Obata  JPN 18/09/1971 5 Osaka 31/01/2010
54 2:27:24 Bizunesh Deba  ETH 08/09/1987 1 St. Paul, MN 03/10/2010
55 2:27:27 Ashu Kasim  ETH 20/10/1984 1 Istanbul 17/10/2010
56 2:27:34 Ryoko Kizaki  JPN 21/06/1985 6 Osaka 31/01/2010
57 2:27:44 Robe Guta  ETH 12/10/1986 3 Amsterdam 17/10/2010
58 2:27:44 Yuliya Ruban  UKR 06/10/1983 7 Frankfurt 31/10/2010
59 2:27:45 Yeshimebet Tadesse  ETH   7 Dubai 22/01/2010
60 2:27:51 Woynishet Girma  ETH 1986 4 Amsterdam 17/10/2010
61 2:27:51 Kateryna Stetsenko  UKR 22/01/1982 2 Dublin 24/10/2010
62 2:27:56 Alemitu Abera  ETH 1986 2 Istanbul 17/10/2010
63 2:28:01 Yelena Sokolova  RUS 27/12/1979 8 Frankfurt 31/10/2010
64 2:28:02 Elza Kireeva  RUS 26/03/1979 3 Dublin 24/10/2010
65 2:28:06 Albina Mayorova  RUS 16/05/1977 7 Toronto 26/09/2010
66 2:28:08 Makda Harun  ETH   1 Venezia 24/10/2010
67 2:28:13 Derartu Tulu  ETH 21/03/1972 2 Nagoya 14/03/2010
68 2:28:17 Xuequin Wang  CHN 1987 4 Seoul 21/03/2010
69 2:28:20 Edna Ngeringwony Kiplagat  KEN 15/09/1979 1 New York City 07/11/2010
70 2:28:22 Anne Cheptanui Bererwe  KEN 04/11/1982 2 Milano 11/04/2010
71 2:28:22 Fate Tola  ETH 22/10/1987 2 Torino 14/11/2010
72 2:28:24 Goitetom Haftu  ETH   1 La Rochelle 28/11/2010
73 2:28:29 Chika Horie  JPN 15/02/1981 7 Osaka 31/01/2010
74 2:28:31 Olena Burkovska  UKR 09/08/1981 5 Berlin 26/09/2010
75 2:28:35 Hiromi Ominami  JPN 15/11/1975 3 Nagoya 14/03/2010
76 2:28:35 Salina Jebet Kosgei  KEN 16/11/1976 3 Boston 19/04/2010
77 2:28:38 Hellen Jemaiyo Kimutai  KEN 28/12/1977 9 Frankfurt 31/10/2010
78 2:28:40 Shalane Flanagan  USA 08/07/1981 2 New York City 07/11/2010
79 2:28:44 Margarita Plaksina  RUS 01/10/1977 2 Houston, TX 17/01/2010
80 2:28:48 Lisa Jane Weightman  AUS 16/01/1979 1 Nagano 18/04/2010
81 2:28:58 Melkam Gisaw  ETH   1 Reims 17/10/2010
82 2:29:01 Mary Jepkosgei Keitany  KEN 18/01/1982 3 New York City 07/11/2010
83 2:29:12 Azusa Nojiri  JPN 06/06/1982 8 Osaka 31/01/2010
84 2:29:12 Bruna Genovese  ITA 24/09/1976 5 Boston, MA 19/04/2010
85 2:29:13 Mai Ito  JPN 23/05/1984 4 Nagoya 14/03/2010
86 2:29:17 Yeshi Esayias  ETH 28/12/1985 1 Daegu 11/04/2010
87 2:29:21 Elizabeth Cheruiyot Chemweno  KEN 13/07/1978 2 Venezia 24/10/2010
88 2:29:25 Workitu Ayanu  ETH 19/04/1987 5 Paris 11/04/2010
89 2:29:27 Sung-eun Kim  KOR 24/02/1989 5 Seoul 21/03/2010
90 2:29:31 Jiali Wang  CHN 01/02/1986 1 Beijing 24/10/2010
91 2:29:36 Mayumi Fujita  JPN 26/05/1983 5 Nagoya 14/03/2010
92 2:29:41 Lyudmila Petrova  RUS 07/10/1968 7 New York City 07/11/2010
93 2:29:45 Kaori Yoshida  JPN 04/08/1981 8 Chicago 10/10/2010
94 2:29:46 Rong Chen  CHN 18/05/1988 2 Beijing 24/10/2010
95 2:29:46 Caroline Rotich  KEN 13/05/1984 8 New York City 07/11/2010
96 2:29:48 Eshetu Degefa  ETH   2 Hamburg 25/04/2010
97 2:29:48 Shitaye Bedaso  ETH   5 Amsterdam 17/10/2010
98 2:29:52 Emmah Muthoni Kiruki  KEN 04/01/1981 1 Taiyuan 05/09/2010
99 2:29:53 Tiki Gelana  ETH 22/10/1987 4 Dublin 24/10/2010
100 2:29:53 Madaí Pérez  MEX 02/02/1980 9 New York City 07/11/2010
101 2:29:54 Akane Wakita  JPN 15/12/1987 6 Nagoya 14/03/2010
102 2:30:10 Tsega Gelaw  ETH 09/10/1990 2 Eindhoven 10/10/2010
103 2:30:15 Adriana Pirtea  ROU 31/01/1980 6 Berlin 26/09/2010
104 2:30:18 Nguriatukei Rael Kiyara  KEN 04/04/1984 1 Padova 25/04/2010
105 2:30:19 Mika Okunaga  JPN 27/10/1982 7 Nagoya 14/03/2010
106 2:30:21 Xiaoshu Wang  CHN 15/11/1986 3 Beijing 24/10/2010
107 2:30:24 Genet Getaneh  ETH 06/01/1986 8 Dubai 22/01/2010
108 2:30:31 Lidiya Grigoryeva  RUS 21/01/1974 6 Boston, MA 19/04/2010
109 2:30:35 Chaofeng Jia  CHN 16/11/1988 9 Chicago 10/10/2010
110 2:30:36 Martha Komu  KEN 23/03/1983 6 Seoul 21/03/2010
111 2:30:37 Radiya Roba  ETH 22/09/1989 1 Cannes 14/11/2010
112 2:30:39 Teyba Naser  ETH 23/07/1986 1 Tempe, AZ 17/01/2010
113 2:30:39 Tabitha Tsatsa  ZIM 18/09/1972 5 Dublin 24/10/2010
114 2:30:40 Yurika Nakamura  JPN 01/04/1986 7 Boston, MA 19/04/2010
115 2:30:41 Elena Rukhlyada  RUS 1986 3 Venezia 24/10/2010
116 2:30:42 Meseret Debele  ETH   2 La Rochelle 28/11/2010
117 2:30:45 Meseret Mengistu  ETH 06/03/1990 2 Firenze 28/11/2010
118 2:30:46 Yanan Wei  CHN 06/12/1981 4 Beijing 24/10/2010
119 2:30:47 Mulu Seboka  ETH 25/09/1984 3 Daegu 11/04/2010
120 2:30:47 Natalya Volgina  RUS 15/03/1977 1 Düsseldorf 02/05/2010
121 2:30:51 Alena Samokhvalova  RUS 21/11/1980 2 Moskva 03/05/2010
122 2:30:51 Colleen De Reuck  USA 13/04/1964 1 Křbenhavn 23/05/2010
123 2:30:52 Rose Kosgei  KEN 22/08/1981 8 Toronto 26/09/2010
124 2:30:53 Yong-Ok Jong  PRK 24/01/1981 2 Pyongyang 11/04/2010
125 2:30:53 Tera Moody USA 18/12/1980 10 Chicago 10/10/2010
126 2:30:56 Anikó Kálovics  HUN 13/05/1977 10 Frankfurt 31/10/2010
127 2:31:00 Svetlana Zakharova  RUS 15/09/1970 11r1 London 25/04/2010
128 2:31:01 Katie McGregor  USA 02/09/1977 11 New York City 07/11/2010
129 2:31:03 Asmae Leghzaoui  MAR 30/08/1976 7 Seoul 21/03/2010
130 2:31:05 Anne Jepkemboi Kosgei  KEN 1980 3 Eindhoven 10/10/2010
131 2:31:06 Rasa Drazdauskaité  LTU 20/03/1981 1 Athína 31/10/2010
132 2:31:09 Bizunesh Urgesa  ETH 18/06/1989 1 Mumbai 17/01/2010
133 2:31:14 Weiwei Sun  CHN 13/01/1985 8 Boston, MA 19/04/2010
134 2:31:14 Zivilé Balciünaité  LTU 03/04/1979 1 Barcelona (O) 31/07/2010
135 2:31:17 Tiruwork Mekonnen  ETH 1986 6 Roma 21/03/2010
136 2:31:27 Almaz Alemu  ETH 1982 1 Castellón 12/12/2010
137 2:31:28 Irene Mogaka Kemunto  KEN 10/01/1985 2 Wien 18/04/2010
138 2:31:37 Nina Podnebesova  RUS 03/06/1980 3 Moskva 03/05/2010
139 2:31:37 Tetyana Holovchenko  UKR 13/02/1980 1 Warszawa 26/09/2010
140 2:31:41 Volha Salevich  BLR 02/10/1983 2 Düsseldorf 02/05/2010
141 2:31:42 Yuko Machida  JPN 11/08/1980 8 Nagoya 14/03/2010
142 2:31:44 Yevgeniya Danilova  RUS 10/08/1981 4 Rotterdam 11/04/2010
143 2:31:48 Martha Markos  ETH 1985 3 Taiyuan 05/09/2010
144 2:31:49 - Triyaningsih  INA 15/05/1987 4 Guangzhou 27/11/2010
145 2:31:50 Debola Wudnesh  ETH 1984 1 Barcelona 07/03/2010

MEILLEURS TEMPS MASCULINS 2010

AUTRES STATISTIQUES